GW4793 Weather Reports


time (UTC)temp
C
wind
direction
speed
KPH
gust
KPH
rain 1hr
cm
rain 24hr
cm
rain mn
cm
humidity
%
barometer
mb
20260906115351 20 89 0.0 0.0 0.00 0.00 0.00 99 1016.0
20260906114850 20 89 0.0 0.0 0.00 0.00 0.00 99 1015.8
20260906114346 20 90 0.0 0.0 0.00 0.00 0.00 99 1015.8
20260906113841 20 48 0.0 1.6 0.00 0.00 0.00 99 1015.8
20260906113340 20 108 0.0 0.0 0.00 0.00 0.00 99 1015.7
20260906112836 20 108 0.0 0.0 0.00 0.00 0.00 99 1015.9
20260906112332 20 108 0.0 0.0 0.00 0.00 0.00 99 1015.8
20260906111831 20 110 0.0 0.0 0.00 0.00 0.00 99 1015.5
20260906111326 20 110 0.0 0.0 0.00 0.00 0.00 99 1015.6
20260906110821 20 110 0.0 0.0 0.00 0.00 0.00 99 1015.8
20260906110317 20 109 0.0 0.0 0.00 0.00 0.00 99 1015.8
20260906105816 20 107 0.0 0.0 0.00 0.00 0.00 99 1015.8
20260906105312 20 107 0.0 0.0 0.00 0.00 0.00 99 1015.6
20260906104807 20 107 0.0 0.0 0.00 0.00 0.00 99 1015.7
20260906104305 20 107 0.0 0.0 0.00 0.00 0.00 99 1015.7
20260906103803 20 107 0.0 0.0 0.00 0.00 0.00 99 1015.7
20260906103303 20 107 0.0 0.0 0.00 0.00 0.00 99 1015.5
20260906102800 20 107 0.0 0.0 0.00 0.00 0.00 99 1015.5
20260906102258 20 107 0.0 0.0 0.00 0.00 0.00 99 1015.6
20260906101754 20 106 0.0 0.0 0.00 0.00 0.00 99 1015.4
20260906101253 20 107 0.0 0.0 0.00 0.00 0.00 99 1015.3
20260906100749 20 107 0.0 0.0 0.00 0.00 0.00 99 1015.4
20260906100249 20 107 0.0 0.0 0.00 0.00 0.00 99 1015.3
20260906095744 20 107 0.0 0.0 0.00 0.00 0.00 98 1015.2
20260906095239 20 107 0.0 0.0 0.00 0.00 0.00 98 1015.3
20260906094739 21 107 0.0 0.0 0.00 0.00 0.00 99 1015.1
20260906094234 21 107 0.0 0.0 0.00 0.00 0.00 98 1015.4
20260906093730 21 107 0.0 0.0 0.00 0.00 0.00 98 1015.2
20260906093225 21 106 0.0 0.0 0.00 0.00 0.00 98 1015.0
20260906092721 21 106 0.0 0.0 0.00 0.00 0.00 98 1015.3
20260906092214 21 108 0.0 0.0 0.00 0.00 0.00 98 1015.3
20260906091710 21 95 0.0 0.0 0.00 0.00 0.00 98 1015.1
20260906091206 21 113 0.0 0.0 0.00 0.00 0.00 98 1015.1
20260906090702 21 113 0.0 0.0 0.00 0.00 0.00 98 1015.2
20260906090201 21 114 1.6 1.6 0.00 0.00 0.00 98 1015.2
20260906085700 21 114 0.0 0.0 0.00 0.00 0.00 98 1015.2
20260906085155 21 94 0.0 0.0 0.00 0.00 0.00 98 1015.0
20260906084655 21 121 0.0 0.0 0.00 0.00 0.00 98 1015.1
20260906084149 21 122 0.0 0.0 0.00 0.00 0.00 97 1015.1
20260906083644 21 123 1.6 1.6 0.00 0.00 0.00 97 1015.2
20260906083139 21 117 1.6 1.6 0.00 0.00 0.00 98 1015.2
20260906082635 21 115 0.0 1.6 0.00 0.00 0.00 97 1015.0
20260906082130 21 111 1.6 3.2 0.00 0.00 0.00 97 1015.0
20260906081626 21 138 3.2 3.2 0.00 0.00 0.00 97 1014.9
20260906081121 21 97 0.0 0.0 0.00 0.00 0.00 97 1014.9
20260906080617 21 96 0.0 0.0 0.00 0.00 0.00 97 1015.0
20260906080113 21 89 0.0 0.0 0.00 0.00 0.00 97 1014.8
20260906075607 21 94 0.0 0.0 0.00 0.00 0.00 97 1014.8
20260906075102 21 94 0.0 0.0 0.00 0.00 0.00 96 1014.6
20260906074557 21 95 0.0 0.0 0.00 0.00 0.00 96 1014.6
20260906074055 21 95 0.0 0.0 0.00 0.00 0.00 96 1014.5
20260906073550 21 95 0.0 0.0 0.00 0.00 0.00 96 1014.6
20260906073046 21 95 0.0 0.0 0.00 0.00 0.00 96 1014.6
20260906072541 21 95 0.0 0.0 0.00 0.00 0.00 96 1014.7
20260906072037 21 95 0.0 0.0 0.00 0.00 0.00 96 1014.4
20260906071533 21 94 0.0 0.0 0.00 0.00 0.00 96 1014.4
20260906071028 21 94 0.0 0.0 0.00 0.00 0.00 96 1014.7
20260906070524 21 94 0.0 0.0 0.00 0.00 0.00 95 1014.5
20260906070020 21 93 0.0 0.0 0.00 0.00 0.00 95 1014.5
20260906065519 22 94 0.0 0.0 0.00 0.00 0.00 95 1014.6
20260906065015 22 93 0.0 0.0 0.00 0.00 0.00 95 1014.8
20260906064511 22 94 0.0 0.0 0.00 0.00 0.00 95 1014.6
20260906064005 22 94 0.0 0.0 0.00 0.00 0.00 94 1014.6
20260906063501 22 96 0.0 0.0 0.00 0.00 0.00 94 1014.7
20260906062956 22 94 0.0 0.0 0.00 0.00 0.00 94 1014.9
20260906062451 22 94 0.0 0.0 0.00 0.00 0.00 94 1014.9
20260906061946 22 94 0.0 0.0 0.00 0.00 0.00 93 1014.8
20260906061442 22 94 0.0 0.0 0.00 0.00 0.00 93 1015.2
20260906060936 22 94 0.0 0.0 0.00 0.00 0.00 93 1014.9
20260906060433 22 94 0.0 0.0 0.00 0.00 0.00 92 1014.8
20260906055929 22 94 0.0 0.0 0.00 0.00 0.00 92 1015.0
20260906055425 22 94 0.0 1.6 0.00 0.00 0.00 92 1014.9
20260906054920 22 100 0.0 0.0 0.00 0.00 0.00 92 1015.2
20260906054415 22 100 0.0 0.0 0.00 0.00 0.00 91 1014.9
20260906053911 23 101 0.0 0.0 0.00 0.00 0.00 91 1015.1
20260906053407 23 101 0.0 0.0 0.00 0.00 0.00 90 1014.9
20260906052902 23 90 0.0 0.0 0.00 0.00 0.00 89 1015.1
20260906052358 23 54 1.6 1.6 0.00 0.00 0.00 90 1014.9
20260906051854 23 124 0.0 0.0 0.00 0.00 0.00 90 1014.9
20260906051349 23 124 0.0 0.0 0.00 0.00 0.00 89 1015.1
20260906050844 23 124 0.0 0.0 0.00 0.00 0.00 88 1015.2
20260906050339 23 124 0.0 0.0 0.00 0.00 0.00 88 1015.0
20260906045838 23 124 0.0 0.0 0.00 0.00 0.00 87 1015.2
20260906045332 23 124 0.0 0.0 0.00 0.00 0.00 87 1015.2
20260906044828 24 124 0.0 0.0 0.00 0.00 0.00 86 1015.4
20260906044323 24 124 0.0 1.6 0.00 0.00 0.00 85 1015.2
20260906043819 24 125 0.0 1.6 0.00 0.00 0.00 85 1015.2
20260906043315 25 102 1.6 1.6 0.00 0.00 0.00 84 1015.3
20260906042815 25 138 1.6 3.2 0.00 0.00 0.00 84 1015.3
20260906042314 25 147 1.6 1.6 0.00 0.00 0.00 85 1015.2
20260906041809 25 145 1.6 3.2 0.00 0.00 0.00 84 1015.4
20260906041304 25 109 3.2 3.2 0.00 0.00 0.00 84 1015.4
20260906040800 25 141 0.0 1.6 0.00 0.00 0.00 84 1015.5
20260906040255 25 142 0.0 1.6 0.00 0.00 0.00 83 1015.5
20260906035750 25 142 1.6 3.2 0.00 0.00 0.00 82 1015.6
20260906035246 25 136 0.0 1.6 0.00 0.00 0.00 81 1015.5
20260906034745 26 114 1.6 3.2 0.00 0.00 0.00 81 1015.6
20260906034240 26 137 3.2 3.2 0.00 0.00 0.00 80 1015.6
20260906033736 26 112 1.6 6.4 0.00 0.00 0.00 79 1015.6
20260906033235 26 111 1.6 4.8 0.00 0.00 0.00 78 1015.6
20260906032732 26 145 0.0 1.6 0.00 0.00 0.00 80 1015.4
20260906032227 26 111 1.6 1.6 0.00 0.00 0.00 81 1015.6
20260906031722 25 116 0.0 3.2 0.00 0.00 0.00 82 1015.7
20260906031218 25 124 0.0 3.2 0.00 0.00 0.00 82 1015.5
20260906030717 25 152 1.6 4.8 0.00 0.00 0.00 83 1015.3
20260906030212 25 133 3.2 3.2 0.00 0.00 0.00 83 1015.4
20260906025711 25 151 3.2 3.2 0.00 0.00 0.00 83 1015.4
20260906025206 25 121 0.0 3.2 0.00 0.00 0.00 83 1015.1
20260906024706 25 144 1.6 4.8 0.00 0.00 0.00 82 1015.0
20260906024205 25 137 3.2 4.8 0.00 0.00 0.00 81 1015.2
20260906023701 25 171 3.2 4.8 0.00 0.00 0.00 81 1015.2
20260906023200 26 135 1.6 1.6 0.00 0.00 0.00 80 1015.0
20260906022655 26 113 1.6 1.6 0.00 0.00 0.00 78 1014.8
20260906022151 26 132 1.6 1.6 0.00 0.00 0.00 78 1014.6
20260906021647 26 123 1.6 1.6 0.00 0.00 0.00 77 1014.8
20260906021145 26 113 0.0 0.0 0.00 0.00 0.00 76 1014.4
20260906020640 26 117 0.0 0.0 0.00 0.00 0.00 74 1014.2
20260906020135 27 117 0.0 1.6 0.00 0.00 0.00 73 1014.1
20260906015630 27 135 0.0 0.0 0.00 0.00 0.00 72 1014.0
20260906015128 27 33 1.6 3.2 0.00 0.00 0.00 70 1014.0
20260906014623 28 354 3.2 4.8 0.00 0.00 0.00 69 1014.1
20260906014120 28 40 1.6 4.8 0.00 0.00 0.00 68 1014.0
20260906013614 28 306 6.4 9.7 0.00 0.00 0.00 66 1013.8
20260906013109 28 20 11.3 22.5 0.00 0.00 0.00 65 1014.1
20260906012604 28 102 0.0 3.2 0.00 0.00 0.00 65 1014.1
20260906012059 28 21 8.0 12.9 0.00 0.00 0.00 65 1014.4
20260906011555 26 14 14.5 17.7 0.00 0.00 0.00 70 1014.3
20260906011054 26 72 0.0 0.0 0.00 0.00 0.00 73 1013.8
20260906010550 26 72 0.0 0.0 0.00 0.00 0.00 72 1013.9
20260906010046 27 72 0.0 0.0 0.00 0.00 0.00 73 1013.7
20260906005545 27 71 1.6 1.6 0.00 0.00 0.00 70 1013.1
20260906005044 27 89 0.0 1.6 0.00 0.00 0.00 68 1013.3
20260906004539 27 89 1.6 1.6 0.00 0.00 0.00 68 1013.4
20260906004033 27 89 0.0 1.6 0.00 0.00 0.00 68 1013.4
20260906003529 27 89 1.6 1.6 0.00 0.00 0.00 67 1013.4
20260906003025 28 86 0.0 0.0 0.00 0.00 0.00 64 1013.4
20260906002525 28 86 0.0 0.0 0.00 0.00 0.00 65 1013.3
20260906002019 29 86 0.0 0.0 0.00 0.00 0.00 61 1013.4
20260906001515 30 86 0.0 0.0 0.00 0.00 0.00 59 1013.6
20260906001009 30 71 0.0 0.0 0.00 0.00 0.00 56 1013.7
20260906000506 30 86 0.0 0.0 0.00 0.00 0.00 55 1013.8
20260905235959 30 32 1.6 4.8 0.00 0.00 0.00 55 1014.2
20260905235453 30 36 9.7 11.3 0.00 0.00 0.00 54 1014.5
20260905234948 31 32 3.2 6.4 0.00 0.00 0.00 53 1014.4
20260905234445 31 275 8.0 16.1 0.00 0.00 0.00 52 1014.2
20260905233944 31 352 3.2 12.9 0.00 0.00 0.00 55 1014.3
20260905233440 31 0 4.8 12.9 0.00 0.00 0.00 57 1014.1
20260905232938 31 317 6.4 12.9 0.00 0.00 0.00 57 1014.1
20260905232435 32 300 9.7 12.9 0.00 0.00 0.00 57 1014.1
20260905231930 32 344 6.4 9.7 0.00 0.00 0.00 58 1014.0
20260905231426 32 322 16.1 17.7 0.00 0.00 0.00 57 1014.0
20260905230922 32 21 11.3 12.9 0.00 0.00 0.00 62 1013.8
20260905230420 32 23 1.6 4.8 0.00 0.00 0.00 61 1013.6
20260905225913 32 0 3.2 3.2 0.00 0.00 0.00 61 1013.6
20260905225408 33 44 1.6 3.2 0.00 0.00 0.00 57 1013.4
20260905224903 34 81 0.0 1.6 0.00 0.00 0.00 56 1013.3
20260905224359 34 52 1.6 3.2 0.00 0.00 0.00 55 1013.3
20260905223853 35 102 0.0 0.0 0.00 0.00 0.00 55 1013.0
20260905223351 36 314 1.6 3.2 0.00 0.00 0.00 53 1013.0
20260905222846 36 116 0.0 0.0 0.00 0.00 0.00 50 1012.8
20260905222344 36 137 0.0 0.0 0.00 0.00 0.00 48 1012.9
20260905221841 36 164 1.6 1.6 0.00 0.00 0.00 45 1013.0
20260905221337 36 209 1.6 6.4 0.00 0.00 0.00 46 1013.0
20260905220832 37 221 4.8 4.8 0.00 0.00 0.00 45 1012.9
20260905220329 37 169 0.0 4.8 0.00 0.00 0.00 43 1013.0
20260905215827 37 123 1.6 4.8 0.00 0.00 0.00 43 1013.0
20260905215323 37 239 3.2 4.8 0.00 0.00 0.00 44 1013.1
20260905214820 37 216 6.4 6.4 0.00 0.00 0.00 45 1013.4
20260905214316 36 158 0.0 3.2 0.00 0.00 0.00 44 1013.4
20260905213816 36 301 4.8 6.4 0.00 0.00 0.00 46 1013.1
20260905213312 37 353 3.2 6.4 0.00 0.00 0.00 46 1013.3
20260905212812 37 4 3.2 4.8 0.00 0.00 0.00 45 1013.0
20260905212312 37 229 3.2 4.8 0.00 0.00 0.00 45 1013.4
20260905211807 37 279 3.2 6.4 0.00 0.00 0.00 45 1013.5
20260905211302 37 244 3.2 3.2 0.00 0.00 0.00 44 1013.5
20260905210759 37 177 1.6 3.2 0.00 0.00 0.00 47 1013.7
20260905210258 37 76 0.0 1.6 0.00 0.00 0.00 45 1013.6
20260905205757 37 172 1.6 4.8 0.00 0.00 0.00 44 1013.8
20260905205252 37 227 1.6 1.6 0.00 0.00 0.00 45 1013.7
20260905204751 36 201 0.0 3.2 0.00 0.00 0.00 47 1013.9
20260905204247 36 246 3.2 4.8 0.00 0.00 0.00 47 1014.0
20260905203746 36 345 6.4 6.4 0.00 0.00 0.00 47 1014.0
20260905203242 36 287 4.8 9.7 0.00 0.00 0.00 48 1014.0
20260905202737 36 334 4.8 9.7 0.00 0.00 0.00 48 1014.1
20260905202232 36 281 6.4 9.7 0.00 0.00 0.00 47 1014.0
20260905201728 36 1 8.0 9.7 0.00 0.00 0.00 45 1014.2
20260905201222 36 4 4.8 9.7 0.00 0.00 0.00 46 1014.2
20260905200718 36 306 8.0 12.9 0.00 0.00 0.00 48 1014.4
20260905200213 36 22 4.8 11.3 0.00 0.00 0.00 49 1014.4
20260905195711 37 111 0.0 3.2 0.00 0.00 0.00 45 1014.4
20260905195206 36 0 1.6 4.8 0.00 0.00 0.00 45 1014.5
20260905194702 36 284 4.8 4.8 0.00 0.00 0.00 48 1014.5
20260905194155 36 312 6.4 11.3 0.00 0.00 0.00 48 1014.6
20260905193650 36 215 4.8 4.8 0.00 0.00 0.00 47 1014.5
20260905193145 36 262 6.4 6.4 0.00 0.00 0.00 47 1014.6
20260905192640 36 314 3.2 12.9 0.00 0.00 0.00 47 1015.0
20260905192137 36 155 1.6 3.2 0.00 0.00 0.00 49 1015.0
20260905191636 35 288 3.2 3.2 0.00 0.00 0.00 50 1014.9
20260905191134 35 10 3.2 4.8 0.00 0.00 0.00 49 1015.2
20260905190632 36 300 3.2 4.8 0.00 0.00 0.00 47 1015.1
20260905190126 36 292 4.8 11.3 0.00 0.00 0.00 49 1015.2
20260905185625 36 311 9.7 12.9 0.00 0.00 0.00 48 1015.2
20260905185120 36 312 8.0 11.3 0.00 0.00 0.00 47 1015.1
20260905184614 36 336 4.8 9.7 0.00 0.00 0.00 46 1015.3
20260905184113 36 257 3.2 4.8 0.00 0.00 0.00 48 1015.4
20260905183612 36 310 6.4 6.4 0.00 0.00 0.00 49 1015.4
20260905183109 36 222 0.0 3.2 0.00 0.00 0.00 48 1015.4
20260905182608 35 5 3.2 6.4 0.00 0.00 0.00 51 1015.6
20260905182108 35 16 6.4 9.7 0.00 0.00 0.00 52 1015.8
20260905181608 35 304 3.2 4.8 0.00 0.00 0.00 50 1015.9
20260905181107 35 356 4.8 9.7 0.00 0.00 0.00 51 1015.8
20260905180602 35 327 4.8 4.8 0.00 0.00 0.00 51 1015.8
20260905180057 35 63 0.0 6.4 0.00 0.00 0.00 49 1015.9
20260905175556 36 134 1.6 1.6 0.00 0.00 0.00 48 1015.8
20260905175052 35 173 1.6 9.7 0.00 0.00 0.00 49 1016.2
20260905174547 35 139 0.0 11.3 0.00 0.00 0.00 50 1016.1
20260905174042 35 339 1.6 3.2 0.00 0.00 0.00 52 1016.2
20260905173539 35 135 1.6 6.4 0.00 0.00 0.00 52 1016.2
20260905173034 35 63 1.6 6.4 0.00 0.00 0.00 51 1016.2
20260905172533 35 305 4.8 11.3 0.00 0.00 0.00 55 1016.1
20260905172028 35 200 3.2 4.8 0.00 0.00 0.00 53 1016.2
20260905171525 35 343 6.4 9.7 0.00 0.00 0.00 53 1016.3
20260905171020 35 134 3.2 4.8 0.00 0.00 0.00 53 1016.3
20260905170517 35 20 6.4 6.4 0.00 0.00 0.00 53 1016.4
20260905170012 35 338 4.8 9.7 0.00 0.00 0.00 55 1016.7
20260905165507 35 31 6.4 11.3 0.00 0.00 0.00 54 1016.7
20260905165002 34 336 1.6 4.8 0.00 0.00 0.00 54 1016.7
20260905164455 34 355 4.8 9.7 0.00 0.00 0.00 56 1016.7
20260905163950 34 289 6.4 11.3 0.00 0.00 0.00 55 1016.7
20260905163447 34 167 1.6 3.2 0.00 0.00 0.00 56 1016.9
20260905162943 34 359 6.4 9.7 0.00 0.00 0.00 55 1017.0
20260905162438 34 345 6.4 11.3 0.00 0.00 0.00 56 1016.9
20260905161932 34 318 9.7 12.9 0.00 0.00 0.00 56 1017.0
20260905161432 34 0 4.8 11.3 0.00 0.00 0.00 56 1016.8
20260905160930 34 49 1.6 3.2 0.00 0.00 0.00 55 1017.1
20260905160424 34 348 8.0 9.7 0.00 0.00 0.00 57 1017.1
20260905155918 33 25 4.8 9.7 0.00 0.00 0.00 59 1017.2
20260905155418 33 355 8.0 12.9 0.00 0.00 0.00 59 1017.1
20260905154917 33 359 4.8 6.4 0.00 0.00 0.00 59 1017.0
20260905154413 33 298 3.2 4.8 0.00 0.00 0.00 61 1017.1
20260905153908 32 27 6.4 6.4 0.00 0.00 0.00 60 1016.9
20260905153404 32 290 3.2 9.7 0.00 0.00 0.00 62 1017.0
20260905152904 33 308 8.0 9.7 0.00 0.00 0.00 60 1017.0
20260905152403 32 319 1.6 6.4 0.00 0.00 0.00 62 1017.2
20260905151858 32 291 4.8 6.4 0.00 0.00 0.00 60 1017.1
20260905151349 32 283 4.8 6.4 0.00 0.00 0.00 60 1017.2
20260905150848 33 16 4.8 9.7 0.00 0.00 0.00 59 1017.3
20260905150343 32 81 1.6 6.4 0.00 0.00 0.00 60 1017.2
20260905145840 32 20 3.2 6.4 0.00 0.00 0.00 61 1017.2
20260905145335 32 12 6.4 6.4 0.00 0.00 0.00 61 1017.4
20260905144834 32 59 1.6 4.8 0.00 0.00 0.00 62 1017.2
20260905144329 32 347 0.0 1.6 0.00 0.00 0.00 65 1017.1
20260905143828 31 36 1.6 3.2 0.00 0.00 0.00 63 1017.2
20260905143322 31 86 1.6 1.6 0.00 0.00 0.00 66 1017.2
20260905142821 31 7 4.8 4.8 0.00 0.00 0.00 66 1017.3
20260905142316 31 52 1.6 4.8 0.00 0.00 0.00 65 1017.3
20260905141812 31 72 1.6 3.2 0.00 0.00 0.00 67 1017.4
20260905141307 30 68 1.6 1.6 0.00 0.00 0.00 69 1017.3
20260905140802 30 41 3.2 3.2 0.00 0.00 0.00 70 1017.5
20260905140302 30 55 3.2 3.2 0.00 0.00 0.00 70 1017.3
20260905135801 30 70 1.6 3.2 0.00 0.00 0.00 74 1017.3
20260905135257 30 283 1.6 3.2 0.00 0.00 0.00 74 1017.4
20260905134757 29 39 1.6 1.6 0.00 0.00 0.00 76 1017.4
20260905134250 29 61 0.0 0.0 0.00 0.00 0.00 77 1017.8
20260905133745 28 62 0.0 0.0 0.00 0.00 0.00 78 1017.7
20260905133240 28 61 1.6 1.6 0.00 0.00 0.00 80 1017.5
20260905132739 27 64 0.0 0.0 0.00 0.00 0.00 81 1017.6
20260905132230 27 64 0.0 0.0 0.00 0.00 0.00 87 1017.6
20260905131730 26 81 1.6 1.6 0.00 0.00 0.00 89 1017.9
20260905131225 25 72 0.0 1.6 0.00 0.00 0.00 96 1017.9
20260905130719 24 173 1.6 3.2 0.00 0.00 0.00 98 1017.7
20260905130214 24 85 0.0 0.0 0.00 0.00 0.00 99 1017.7
20260905125709 23 85 0.0 0.0 0.00 0.00 0.00 99 1017.7
20260905125204 23 85 0.0 0.0 0.00 0.00 0.00 99 1017.5
20260905124700 23 85 0.0 0.0 0.00 0.00 0.00 99 1017.6
20260905124156 23 85 0.0 0.0 0.00 0.00 0.00 99 1017.6
20260905123651 22 85 0.0 0.0 0.00 0.00 0.00 99 1017.7
20260905123148 22 85 0.0 0.0 0.00 0.00 0.00 99 1017.6
20260905122647 22 85 0.0 0.0 0.00 0.00 0.00 99 1017.6
20260905122142 22 85 0.0 0.0 0.00 0.00 0.00 99 1017.7
20260905121637 22 85 0.0 0.0 0.00 0.00 0.00 99 1017.6
20260905121132 22 85 0.0 0.0 0.00 0.00 0.00 99 1017.5
20260905120631 22 85 0.0 0.0 0.00 0.00 0.00 99 1017.4
20260905120126 22 85 0.0 0.0 0.00 0.00 0.00 99 1017.4
20260905115620 22 85 0.0 0.0 0.00 0.00 0.00 99 1017.3